Regional Weather Roundup
Issued by NWS

Home | Current Version | Previous Version | Graphics & Text | Print | Product List | Glossary On
Versions: 1 2 3 4 5 6 7 8 9 10 11 12 13 14 15 16 17 18 19 20 21 22 23 24 25 26 27 28 29 30 31 32 33 34 35 36 37 38 39 40 41 42 43 44 45 46 47 48 49 50
803
ASUS43 KLMK 232310
RWRKY
KENTUCKY REGIONAL WEATHER ROUNDUP
NATIONAL WEATHER SERVICE LOUISVILLE KY
700 PM EDT MON MAY 23 2016

NOTE "FAIR" INDICATES FEW OR NO CLOUDS BELOW 12,000 FEET
WITH NO SIGNIFICANT WEATHER AND/OR OBSTRUCTIONS TO VISIBILITY.

KYZ001>023-026-027-061>063-070>075-240000-
WESTERN AND SOUTH CENTRAL KENTUCKY

CITY           SKY/WX    TMP DP  RH WIND       PRES   REMARKS
PADUCAH        CLOUDY    81  57  43 W5        29.93F
HENDERSON      SUNNY     79  48  34 CALM      29.94F
OWENSBORO      SUNNY     82  48  30 CALM      29.96F
HOPKINSVILLE   SUNNY     79  56  45 NE3       29.95F
BOWLING GREEN  SUNNY     79  48  33 E6        29.97F
GLASGOW        SUNNY     77  43  30 E3        29.98F
$$

KYZ024-025-028>034-038-045-046-053-240000-
NORTH CENTRAL KENTUCKY

CITY           SKY/WX    TMP DP  RH WIND       PRES   REMARKS
LOUISVILLE/SDF SUNNY     78  43  28 CALM      29.98S
LOUISVILLE/LOU SUNNY     78  44  29 NE6       29.99S
FORT KNOX      SUNNY     76  40  27 NE2       29.97F
$$

KYZ035>037-039>044-047>052-055>060-089>105-240000-
NORTHEAST KENTUCKY

CITY           SKY/WX    TMP DP  RH WIND       PRES   REMARKS
LEXINGTON      SUNNY     75  48  38 N5        30.02R
COVINGTON      MOSUNNY   76  47  35 CALM      30.00S
FRANKFORT      SUNNY     75  46  35 SE3       30.00S
$$

KYZ054-064>069-076>088-106>120-240000-
SOUTHEAST KENTUCKY

CITY           SKY/WX    TMP DP  RH WIND       PRES   REMARKS
JACKSON        SUNNY     71  50  47 CALM      30.03S
LONDON         SUNNY     73  46  38 NE7       30.01S
SOMERSET       MOSUNNY   73  45  35 E5        30.02R
MIDDLESBORO    SUNNY     74  48  38 N3        30.00S
MONTICELLO     CLEAR     75  47  36 N13       30.02R
$$





USA.gov is the U.S. government's official web portal to all federal, state and local government web resources and services.